KK4OHF Weather Reports


time (UTC)temp
C
wind
direction
speed
KPH
gust
KPH
rain 1hr
cm
rain 24hr
cm
rain mn
cm
humidity
%
barometer
mb
20260506174005 26 191 3.2 12.9 0.00 0.00 0.00 64 1013.5
20260506173504 26 231 6.4 16.1 0.00 0.00 0.00 64 1013.5
20260506173005 25 234 3.2 8.0 0.00 0.00 0.00 66 1013.5
20260506172506 25 156 3.2 8.0 0.00 0.00 0.00 65 1013.5
20260506171005 26 149 4.8 12.9 0.00 0.00 0.00 65 1013.6
20260506170506 26 165 4.8 12.9 0.00 0.00 0.00 65 1013.6
20260506165505 25 279 3.2 16.1 0.00 0.00 0.00 67 1013.6
20260506165005 25 28 4.8 16.1 0.00 0.00 0.00 67 1013.6
20260506164505 25 245 3.2 11.3 0.00 0.00 0.00 67 1013.6
20260506164005 25 285 1.6 11.3 0.00 0.00 0.00 69 1013.9
20260506163506 25 205 1.6 4.8 0.00 0.00 0.00 69 1013.9
20260506163006 25 214 3.2 9.7 0.00 0.00 0.00 69 1013.9
20260506162505 25 196 3.2 11.3 0.00 0.00 0.00 69 1013.9
20260506162004 24 185 3.2 8.0 0.00 0.00 0.00 71 1013.9
20260506161005 23 324 1.6 8.0 0.00 0.00 0.00 72 1014.1
20260506160505 23 128 3.2 14.5 0.00 0.00 0.00 72 1014.1
20260506160005 23 196 4.8 16.1 0.00 0.00 0.00 72 1014.1
20260506155504 23 212 3.2 11.3 0.00 0.00 0.00 73 1014.1
20260506155006 23 162 3.2 11.3 0.00 0.00 0.00 75 1013.3
20260506153505 23 332 1.6 4.8 0.00 0.00 0.00 75 1013.3
20260506153005 22 166 3.2 9.7 0.00 0.00 0.00 75 1013.3
20260506152504 23 258 3.2 4.8 0.00 0.00 0.00 75 1013.3
20260506151505 22 209 3.2 14.5 0.00 0.00 0.00 77 1013.3
20260506151006 21 173 3.2 11.3 0.00 0.00 0.00 79 1013.3
20260506150505 21 19 3.2 11.3 0.00 0.00 0.00 80 1013.3
20260506150006 21 147 3.2 19.3 0.00 0.00 0.00 80 1013.3
20260506145505 21 290 1.6 9.7 0.00 0.00 0.00 80 1013.3
20260506145005 21 218 3.2 9.7 0.00 0.00 0.00 80 1013.3
20260506144505 21 223 3.2 8.0 0.00 0.00 0.00 80 1013.3
20260506144005 21 265 3.2 14.5 0.00 0.00 0.00 80 1013.3
20260506143505 21 246 3.2 14.5 0.00 0.00 0.00 80 1013.3
20260506143005 21 213 4.8 14.5 0.00 0.00 0.00 79 1013.3
20260506142505 21 273 1.6 9.7 0.00 0.00 0.00 78 1013.3
20260506142006 21 268 1.6 11.3 0.00 0.00 0.00 77 1013.3
20260506141005 21 161 3.2 11.3 0.00 0.00 0.00 77 1013.3
20260506140505 21 223 1.6 9.7 0.00 0.00 0.00 77 1013.3
20260506140005 21 242 1.6 8.0 0.00 0.00 0.00 77 1013.3
20260506135504 21 246 3.2 9.7 0.00 0.00 0.00 77 1013.3
20260506135005 21 270 4.8 16.1 0.00 0.00 0.00 77 1013.3
20260506134505 20 200 3.2 12.9 0.00 0.00 0.00 78 1013.3
20260506134005 21 252 3.2 11.3 0.00 0.00 0.00 78 1013.3
20260506133505 20 243 4.8 14.5 0.00 0.00 0.00 79 1013.3
20260506133005 20 250 1.6 8.0 0.00 0.00 0.00 80 1013.3
20260506132505 20 215 3.2 9.7 0.00 0.00 0.00 80 1013.3
20260506132005 20 223 0.0 9.7 0.00 0.00 0.00 81 1013.3
20260506131006 20 85 1.6 12.9 0.00 0.00 0.00 82 1013.3
20260506130505 20 17 1.6 4.8 0.00 0.00 0.00 82 1013.3
20260506130006 20 112 1.6 4.8 0.00 0.00 0.00 83 1013.3
20260506125505 20 252 0.0 4.8 0.00 0.00 0.00 83 1013.3
20260506125005 20 140 1.6 4.8 0.00 0.00 0.00 84 1013.3
20260506124505 20 244 1.6 4.8 0.00 0.00 0.00 85 1013.3
20260506124005 19 191 1.6 4.8 0.00 0.00 0.00 86 1013.3
20260506123506 19 242 0.0 4.8 0.00 0.00 0.00 86 1013.3
20260506122505 19 242 1.6 8.0 0.00 0.00 0.00 86 1013.3
20260506122005 19 288 0.0 3.2 0.00 0.00 0.00 86 1013.3
20260506121504 19 8 0.0 1.6 0.00 0.00 0.00 86 1013.3
20260506121004 19 201 0.0 3.2 0.00 0.00 0.00 86 1013.3
20260506120505 18 227 0.0 4.8 0.00 0.00 0.00 86 1013.3
20260506120006 18 85 0.0 4.8 0.00 0.00 0.00 86 1012.3
20260506115506 18 84 0.0 3.2 0.00 0.00 0.00 86 1012.3
20260506115006 18 113 1.6 4.8 0.00 0.00 0.00 86 1012.3
20260506114504 18 157 1.6 4.8 0.00 0.00 0.00 86 1012.3
20260506114006 18 186 1.6 3.2 0.00 0.00 0.00 86 1012.3
20260506113505 18 234 1.6 3.2 0.00 0.00 0.00 86 1012.3
20260506113005 18 231 0.0 3.2 0.00 0.00 0.00 86 1012.3
20260506112504 18 155 0.0 3.2 0.00 0.00 0.00 87 1012.3
20260506112005 18 204 1.6 8.0 0.00 0.00 0.00 87 1012.3
20260506111505 18 69 0.0 4.8 0.00 0.00 0.00 87 1012.3
20260506111005 18 217 0.0 3.2 0.00 0.00 0.00 87 1012.3
20260506110005 18 162 0.0 4.8 0.00 0.00 0.00 87 1012.3
20260506105505 18 243 0.0 1.6 0.00 0.00 0.00 87 1012.3
20260506105005 18 202 0.0 0.0 0.00 0.00 0.00 87 1012.3
20260506104505 18 187 0.0 1.6 0.00 0.00 0.00 87 1012.3
20260506104005 18 211 0.0 1.6 0.00 0.00 0.00 87 1012.3
20260506103505 18 259 0.0 0.0 0.00 0.00 0.00 87 1012.3
20260506103005 18 270 0.0 3.2 0.00 0.00 0.00 87 1012.3
20260506101505 18 135 1.6 4.8 0.00 0.00 0.00 87 1011.6
20260506101005 18 159 0.0 1.6 0.00 0.00 0.00 87 1011.6
20260506100005 18 222 0.0 1.6 0.00 0.00 0.00 86 1011.6
20260506095505 18 232 0.0 3.2 0.00 0.00 0.00 86 1011.6
20260506094505 18 234 0.0 1.6 0.00 0.00 0.00 86 1011.6
20260506094005 18 215 0.0 3.2 0.00 0.00 0.00 86 1011.6
20260506093505 18 201 0.0 3.2 0.00 0.00 0.00 86 1011.6
20260506093006 18 211 0.0 1.6 0.00 0.00 0.00 85 1011.6
20260506092005 18 197 0.0 1.6 0.00 0.00 0.00 85 1011.6
20260506091505 18 209 0.0 4.8 0.00 0.00 0.00 85 1011.6
20260506091006 18 161 0.0 4.8 0.00 0.00 0.00 85 1011.5
20260506090505 18 179 1.6 3.2 0.00 0.00 0.00 85 1011.5
20260506090006 18 353 0.0 3.2 0.00 0.00 0.00 85 1011.5
20260506085506 18 261 0.0 1.6 0.00 0.00 0.00 85 1011.5
20260506084005 17 244 0.0 0.0 0.00 0.00 0.00 85 1011.5
20260506083504 17 119 0.0 0.0 0.00 0.00 0.00 85 1011.5
20260506083006 17 281 0.0 0.0 0.00 0.00 0.00 86 1011.5
20260506082506 17 186 0.0 0.0 0.00 0.00 0.00 86 1011.5
20260506082006 16 252 0.0 0.0 0.00 0.00 0.00 85 1011.6
20260506081505 16 108 0.0 0.0 0.00 0.00 0.00 85 1011.6
20260506080505 16 155 0.0 0.0 0.00 0.00 0.00 85 1011.6
20260506073506 16 142 0.0 0.0 0.00 0.00 0.00 84 1011.6
20260506073005 16 156 0.0 0.0 0.00 0.00 0.00 83 1011.6
20260506072505 16 156 0.0 0.0 0.00 0.00 0.00 82 1011.6
20260506071007 17 154 0.0 0.0 0.00 0.00 0.00 83 1012.5
20260506062505 16 121 0.0 0.0 0.00 0.00 0.00 79 1012.5
20260506062005 16 121 0.0 0.0 0.00 0.00 0.00 79 1012.5
20260506061505 16 121 0.0 0.0 0.00 0.00 0.00 77 1012.5
20260506061006 16 121 0.0 0.0 0.00 0.00 0.00 77 1012.5
20260506060505 17 121 0.0 0.0 0.00 0.00 0.00 76 1012.5
20260506050505 18 188 0.0 1.6 0.00 0.00 0.00 66 1012.1
20260506045005 18 179 0.0 4.8 0.00 0.00 0.00 64 1012.6
20260506044005 18 132 1.6 4.8 0.00 0.00 0.00 63 1012.6
20260506043506 19 118 1.6 3.2 0.00 0.00 0.00 62 1012.6
20260506043005 19 159 1.6 3.2 0.00 0.00 0.00 62 1012.6
20260506042505 19 134 0.0 0.0 0.00 0.00 0.00 61 1012.6
20260506042006 19 153 0.0 1.6 0.00 0.00 0.00 60 1012.6
20260506041506 19 224 0.0 1.6 0.00 0.00 0.00 60 1012.6
20260506041005 19 191 0.0 3.2 0.00 0.00 0.00 60 1012.6
20260506040506 20 138 0.0 3.2 0.00 0.00 0.00 59 1012.6
20260506035506 20 154 1.6 4.8 0.00 0.00 0.00 58 1012.6
20260506035005 20 169 1.6 9.7 0.00 0.00 0.00 58 1012.6
20260506034506 20 125 3.2 9.7 0.00 0.00 0.00 58 1012.6
20260506034005 20 163 3.2 4.8 0.00 0.00 0.00 57 1012.6
20260506033505 20 137 3.2 8.0 0.00 0.00 0.00 57 1012.6
20260506033005 20 199 1.6 8.0 0.00 0.00 0.00 57 1012.6
20260506032005 20 128 1.6 4.8 0.00 0.00 0.00 57 1012.6
20260506031506 20 128 0.0 3.2 0.00 0.00 0.00 56 1012.6
20260506030505 20 142 0.0 4.8 0.00 0.00 0.00 56 1012.6
20260506030006 20 100 1.6 4.8 0.00 0.00 0.00 55 1012.6
20260506025505 20 132 1.6 3.2 0.00 0.00 0.00 55 1012.6
20260506025005 20 123 1.6 8.0 0.00 0.00 0.00 54 1012.6
20260506024505 20 139 3.2 4.8 0.00 0.00 0.00 54 1012.6
20260506023006 20 123 1.6 8.0 0.00 0.00 0.00 53 1012.1
20260506022505 20 182 1.6 8.0 0.00 0.00 0.00 53 1012.1
20260506021505 20 161 1.6 4.8 0.00 0.00 0.00 54 1012.1
20260506020505 20 169 3.2 4.8 0.00 0.00 0.00 53 1012.1
20260506020005 21 151 3.2 8.0 0.00 0.00 0.00 53 1012.1
20260506015505 21 345 1.6 4.8 0.00 0.00 0.00 53 1012.1
20260506015005 21 144 3.2 4.8 0.00 0.00 0.00 52 1012.1
20260506014505 21 107 3.2 9.7 0.00 0.00 0.00 52 1012.1
20260506014005 21 126 3.2 4.8 0.00 0.00 0.00 52 1012.1
20260506013505 21 127 0.0 3.2 0.00 0.00 0.00 53 1012.1
20260506013005 21 133 1.6 4.8 0.00 0.00 0.00 52 1012.1
20260506011505 21 185 3.2 8.0 0.00 0.00 0.00 52 1012.1
20260506011005 21 150 1.6 4.8 0.00 0.00 0.00 52 1012.1
20260506010505 21 141 1.6 4.8 0.00 0.00 0.00 52 1012.1
20260506010006 22 152 1.6 3.2 0.00 0.00 0.00 52 1012.1
20260506005505 22 138 1.6 4.8 0.00 0.00 0.00 51 1012.1
20260506005006 22 124 1.6 4.8 0.00 0.00 0.00 51 1012.1
20260506004505 22 138 1.6 4.8 0.00 0.00 0.00 50 1012.1
20260506004005 22 144 3.2 11.3 0.00 0.00 0.00 50 1012.1
20260506003505 22 137 1.6 4.8 0.00 0.00 0.00 49 1012.1
20260506003005 22 153 1.6 4.8 0.00 0.00 0.00 49 1012.1
20260506001505 22 167 1.6 3.2 0.00 0.00 0.00 48 1012.1
20260506001005 22 92 0.0 1.6 0.00 0.00 0.00 47 1012.1
20260506000505 22 129 0.0 1.6 0.00 0.00 0.00 46 1012.1
20260506000005 23 94 0.0 3.2 0.00 0.00 0.00 46 1012.1
20260505235504 23 81 0.0 3.2 0.00 0.00 0.00 46 1012.1
20260505235005 23 150 0.0 3.2 0.00 0.00 0.00 46 1012.1
20260505234505 23 157 0.0 4.8 0.00 0.00 0.00 45 1012.1
20260505234005 23 149 1.6 8.0 0.00 0.00 0.00 45 1012.1
20260505232505 23 115 3.2 8.0 0.00 0.00 0.00 43 1012.1
20260505232006 23 182 3.2 11.3 0.00 0.00 0.00 42 1012.1
20260505231504 23 241 1.6 4.8 0.00 0.00 0.00 42 1012.1
20260505230005 24 340 1.6 8.0 0.00 0.00 0.00 41 1012.1
20260505225506 24 296 3.2 8.0 0.00 0.00 0.00 41 1012.1
20260505225005 24 185 3.2 8.0 0.00 0.00 0.00 40 1012.1
20260505224505 24 138 4.8 11.3 0.00 0.00 0.00 39 1012.1
20260505224006 25 30 3.2 8.0 0.00 0.00 0.00 38 1012.0
20260505223505 25 106 3.2 11.3 0.00 0.00 0.00 37 1012.0
20260505223005 25 141 4.8 11.3 0.00 0.00 0.00 38 1012.0
20260505222505 25 50 4.8 11.3 0.00 0.00 0.00 38 1012.0
20260505222006 25 75 3.2 11.3 0.00 0.00 0.00 38 1012.0
20260505221505 25 168 3.2 11.3 0.00 0.00 0.00 38 1012.0
20260505220505 25 116 3.2 14.5 0.00 0.00 0.00 37 1012.0
20260505215505 25 50 4.8 16.1 0.00 0.00 0.00 35 1012.0
20260505215005 25 142 3.2 16.1 0.00 0.00 0.00 38 1012.0
20260505214504 25 174 3.2 11.3 0.00 0.00 0.00 38 1012.0
20260505214005 25 117 3.2 12.9 0.00 0.00 0.00 36 1012.0
20260505213505 26 136 4.8 12.9 0.00 0.00 0.00 37 1012.0
20260505213005 26 162 1.6 4.8 0.00 0.00 0.00 38 1012.5
20260505212504 26 131 3.2 12.9 0.00 0.00 0.00 38 1012.5
20260505212005 26 128 3.2 9.7 0.00 0.00 0.00 38 1012.5
20260505211505 26 136 1.6 9.7 0.00 0.00 0.00 40 1012.5
20260505211006 26 132 3.2 12.9 0.00 0.00 0.00 38 1012.5
20260505210006 26 112 1.6 8.0 0.00 0.00 0.00 37 1012.5
20260505205505 26 255 3.2 4.8 0.00 0.00 0.00 38 1012.5
20260505205005 26 172 3.2 12.9 0.00 0.00 0.00 37 1012.5
20260505204505 26 163 4.8 12.9 0.00 0.00 0.00 37 1012.5
20260505203505 26 77 1.6 4.8 0.00 0.00 0.00 37 1013.0
20260505203005 26 290 3.2 11.3 0.00 0.00 0.00 36 1013.0
20260505202504 26 111 3.2 12.9 0.00 0.00 0.00 38 1013.0
20260505202005 26 296 3.2 11.3 0.00 0.00 0.00 37 1013.0
20260505201505 26 79 3.2 14.5 0.00 0.00 0.00 36 1013.0
20260505201004 26 81 3.2 8.0 0.00 0.00 0.00 37 1013.2
20260505200505 26 272 3.2 9.7 0.00 0.00 0.00 38 1013.2
20260505200005 26 157 1.6 4.8 0.00 0.00 0.00 40 1013.2
20260505195504 26 350 3.2 11.3 0.00 0.00 0.00 38 1013.2
20260505195006 26 292 3.2 12.9 0.00 0.00 0.00 37 1013.2
20260505194005 27 157 3.2 12.9 0.00 0.00 0.00 39 1014.9
20260505193506 26 246 1.6 4.8 0.00 0.00 0.00 40 1014.9
20260505193005 26 116 3.2 12.9 0.00 0.00 0.00 40 1014.9
20260505192506 26 138 3.2 11.3 0.00 0.00 0.00 38 1014.9
20260505190505 26 214 3.2 11.3 0.00 0.00 0.00 40 1014.9
20260505190006 26 251 4.8 11.3 0.00 0.00 0.00 41 1014.9
20260505185005 26 93 3.2 8.0 0.00 0.00 0.00 39 1014.9
20260505184505 25 310 3.2 11.3 0.00 0.00 0.00 39 1014.9
20260505183505 25 83 1.6 4.8 0.00 0.00 0.00 42 1014.9
20260505183006 25 121 3.2 8.0 0.00 0.00 0.00 41 1014.9
20260505182504 25 81 3.2 8.0 0.00 0.00 0.00 40 1014.9
20260505182006 25 241 1.6 12.9 0.00 0.00 0.00 40 1014.9
20260505181006 25 358 1.6 11.3 0.00 0.00 0.00 43 1014.9
20260505180505 25 210 1.6 11.3 0.00 0.00 0.00 40 1014.9
20260505180006 25 123 3.2 12.9 0.00 0.00 0.00 41 1014.9
20260505175505 25 294 3.2 9.7 0.00 0.00 0.00 40 1014.9
20260505175005 25 66 3.2 4.8 0.00 0.00 0.00 41 1014.9
20260505174505 25 349 1.6 4.8 0.00 0.00 0.00 41 1014.9